Weather History for KHOU - May, 2012

Change the Weather History Date:

Saturday, May 26, 2012

  Actual Average Record
Temperature  
Mean Temperature 83 °F 79 °F  
Max Temperature 91 °F 89 °F 98 °F (2011)
Min Temperature 75 °F 70 °F 57 °F (1979)
Cooling Degree Days 18 14  
Month to date cooling degree days 347 297  
Year to date cooling degree days 871 578  
Growing Degree Days 32 (Base 50)    
Moisture  
Dew Point 70 °F    
Average Humidity 66    
Maximum Humidity 87    
Minimum Humidity 44    
Precipitation  
Precipitation 0.00 in 0.17 in 2.91 in (2014)
Month to date precipitation 0.77 4.24  
Year to date precipitation 22.24 17.54  
Sea Level Pressure  
Sea Level Pressure 30.02 in    
Wind  
Wind Speed 6 mph (SE)    
Max Wind Speed 21 mph    
Max Gust Speed 24 mph    
Visibility 9 miles    
Events      
T = Trace of Precipitation, MM = Missing Value Source: NWS Daily Summary

Daily Weather History Graph

Daily Weather History Graph

Search for Another Location

Airport or City:

Trip Planner

Search our weather history database for the weather conditions in past years. The results will help you decide how hot, cold, wet, or windy it might be!

Date:

Astronomy

May. 26, 2012 Rise Set
Actual Time 6:22 AM CDT 8:13 PM CDT
Civil Twilight 5:56 AM CDT 8:40 PM CDT
Nautical Twilight 5:24 AM CDT 9:12 PM CDT
Astronomical Twilight 4:50 AM CDT 9:46 PM CDT
Moon 11:14 AM CDT (5/26) No Moon Set
Length of Visible Light 14h 44m
Length of Day
13h 50m
Waxing Crescent, 28% of the Moon is Illuminated
May 26
Waxing Crescent
May 28
First Quarter
Jun 4
Full
Jun 11
Last Quarter
Jun 19
New

Hourly Weather History & Observations

Time (CDT) Temp. Heat Index Dew Point Humidity Pressure Visibility Wind Dir Wind Speed Gust Speed Precip Events Conditions
12:53 AM 77.0 °F - 72.0 °F 84% 30.01 in 8.0 mi SE 6.9 mph - N/A   Mostly Cloudy
1:20 AM 77.0 °F - 71.6 °F 83% 30.00 in 8.0 mi SE 5.8 mph - N/A   Mostly Cloudy
1:53 AM 77.0 °F - 72.0 °F 84% 30.01 in 8.0 mi SE 5.8 mph - N/A   Mostly Cloudy
2:53 AM 75.9 °F - 72.0 °F 87% 30.01 in 8.0 mi SSE 4.6 mph - N/A   Mostly Cloudy
3:53 AM 77.0 °F - 72.0 °F 84% 30.01 in 8.0 mi SSE 5.8 mph - N/A   Mostly Cloudy
4:18 AM 75.2 °F - 71.6 °F 89% 30.00 in 8.0 mi SSE 3.5 mph - N/A   Mostly Cloudy
4:53 AM 75.9 °F - 72.0 °F 87% 30.02 in 8.0 mi Calm Calm - N/A   Mostly Cloudy
5:53 AM 75.9 °F - 72.0 °F 87% 30.03 in 8.0 mi Calm Calm - N/A   Mostly Cloudy
6:53 AM 75.0 °F - 72.0 °F 90% 30.04 in 10.0 mi SE 3.5 mph - N/A   Mostly Cloudy
7:53 AM 78.1 °F - 73.0 °F 84% 30.04 in 10.0 mi SSE 4.6 mph - N/A   Mostly Cloudy
8:53 AM 79.0 °F - 72.0 °F 79% 30.06 in 10.0 mi South 6.9 mph - N/A   Mostly Cloudy
9:53 AM 82.0 °F 86.7 °F 72.0 °F 71% 30.06 in 10.0 mi SSE 5.8 mph - N/A   Mostly Cloudy
10:53 AM 84.0 °F 87.8 °F 69.1 °F 61% 30.07 in 10.0 mi SE 10.4 mph - N/A   Scattered Clouds
11:53 AM 86.0 °F 90.7 °F 70.0 °F 59% 30.07 in 10.0 mi SE 5.8 mph - N/A   Scattered Clouds
12:53 PM 87.1 °F 91.3 °F 69.1 °F 55% 30.06 in 10.0 mi South 6.9 mph - N/A   Scattered Clouds
1:53 PM 88.0 °F 91.4 °F 68.0 °F 51% 30.04 in 10.0 mi ESE 8.1 mph - N/A   Scattered Clouds
2:53 PM 89.1 °F 92.9 °F 68.0 °F 50% 30.02 in 10.0 mi SE 10.4 mph - N/A   Scattered Clouds
3:53 PM 89.1 °F 91.3 °F 66.0 °F 46% 30.01 in 10.0 mi SE 6.9 mph 17.3 mph N/A   Scattered Clouds
4:53 PM 88.0 °F 91.4 °F 68.0 °F 51% 30.00 in 10.0 mi ESE 12.7 mph - N/A   Scattered Clouds
5:53 PM 84.0 °F 88.4 °F 70.0 °F 63% 29.99 in 10.0 mi ESE 11.5 mph - N/A   Scattered Clouds
6:53 PM 82.9 °F 87.0 °F 70.0 °F 65% 29.99 in 10.0 mi ESE 9.2 mph - N/A   Scattered Clouds
7:53 PM 81.0 °F 83.8 °F 68.0 °F 65% 29.99 in 10.0 mi SE 10.4 mph 18.4 mph N/A   Scattered Clouds
8:53 PM 80.1 °F 83.6 °F 71.1 °F 74% 29.99 in 10.0 mi ESE 10.4 mph - N/A   Scattered Clouds
9:53 PM 78.1 °F - 71.1 °F 79% 30.00 in 10.0 mi SE 6.9 mph - N/A   Scattered Clouds
10:53 PM 77.0 °F - 70.0 °F 79% 30.01 in 10.0 mi Calm Calm - N/A   Scattered Clouds
11:53 PM 75.9 °F - 70.0 °F 82% 30.01 in 10.0 mi SE 3.5 mph - N/A   Scattered Clouds